Terminal Aerodrome Forecast
Issued by NWS

Current Version | Previous Version | Graphics & Text | Print | Product List | Glossary On
Versions: 1 2 3 4 5 6 7 8 9 10 11 12 13 14 15 16 17 18 19 20 21 22 23 24 25
000
FTUS41 KRLX 211310 AAA
TAFCKB
TAF AMD
KCKB 211310Z 2113/2212 03004KT 5SM -RA SCT006 OVC025
      TEMPO 2113/2115 2SM -RA BR BKN006
     FM211500 VRB03KT 6SM -RA OVC030
     FM211600 00000KT P6SM OVC020
     FM211700 00000KT P6SM BKN025
     FM220500 VRB03KT P6SM SCT045
     FM220900 VRB03KT P6SM FEW150=

USA.gov is the U.S. government's official web portal to all federal, state and local government web resources and services.